| time (UTC) | temp F | wind direction | speed MPH | gust MPH | rain 1hr in | rain 24hr in | rain mn in | humidity % | barometer mb |
| 20260509141319 | 60 | 181 | 6.0 | 14.0 | 0.00 | 0.38 | 0.23 | 82 | 1006.0 |
| 20260509140819 | 60 | 217 | 7.0 | 12.0 | 0.00 | 0.38 | 0.23 | 82 | 1006.1 |
| 20260509140319 | 60 | 228 | 4.0 | 11.0 | 0.00 | 0.38 | 0.23 | 84 | 1006.1 |
| 20260509135319 | 60 | 212 | 5.0 | 10.0 | 0.00 | 0.38 | 0.23 | 82 | 1006.1 |
| 20260509134818 | 60 | 245 | 4.0 | 10.0 | 0.00 | 0.38 | 0.23 | 84 | 1006.0 |
| 20260509133818 | 60 | 167 | 4.0 | 9.0 | 0.00 | 0.38 | 0.23 | 83 | 1006.1 |
| 20260509133318 | 60 | 218 | 4.0 | 9.0 | 0.00 | 0.38 | 0.23 | 85 | 1006.2 |
| 20260509132818 | 59 | 184 | 5.0 | 9.0 | 0.00 | 0.38 | 0.23 | 85 | 1006.2 |
| 20260509132317 | 59 | 201 | 6.0 | 10.0 | 0.00 | 0.38 | 0.23 | 85 | 1006.2 |
| 20260509131818 | 59 | 193 | 4.0 | 10.0 | 0.00 | 0.38 | 0.23 | 86 | 1006.3 |
| 20260509131317 | 58 | 115 | 2.0 | 9.0 | 0.00 | 0.38 | 0.23 | 85 | 1006.2 |
| 20260509130817 | 58 | 200 | 4.0 | 10.0 | 0.00 | 0.38 | 0.23 | 87 | 1006.2 |
| 20260509130317 | 57 | 184 | 5.0 | 10.0 | 0.00 | 0.38 | 0.23 | 87 | 1006.2 |
| 20260509125817 | 57 | 177 | 2.0 | 9.0 | 0.00 | 0.38 | 0.23 | 88 | 1006.1 |
| 20260509125317 | 57 | 198 | 4.0 | 9.0 | 0.00 | 0.38 | 0.23 | 87 | 1006.2 |
| 20260509124817 | 57 | 250 | 2.0 | 9.0 | 0.00 | 0.38 | 0.23 | 88 | 1006.2 |
| 20260509124316 | 57 | 186 | 3.0 | 9.0 | 0.00 | 0.38 | 0.23 | 89 | 1006.2 |
| 20260509123816 | 56 | 205 | 9.0 | 9.0 | 0.00 | 0.38 | 0.23 | 90 | 1006.1 |
| 20260509122816 | 56 | 219 | 4.0 | 7.0 | 0.00 | 0.38 | 0.23 | 89 | 1006.1 |
| 20260509122316 | 56 | 283 | 2.0 | 7.0 | 0.00 | 0.38 | 0.23 | 90 | 1006.1 |
| 20260509121316 | 55 | 204 | 3.0 | 7.0 | 0.00 | 0.38 | 0.23 | 90 | 1006.0 |
| 20260509120816 | 55 | 234 | 3.0 | 10.0 | 0.00 | 0.38 | 0.23 | 91 | 1005.9 |
| 20260509120316 | 55 | 205 | 3.0 | 10.0 | 0.00 | 0.38 | 0.23 | 90 | 1005.8 |
| 20260509115816 | 55 | 232 | 5.0 | 7.0 | 0.00 | 0.38 | 0.23 | 91 | 1005.9 |
| 20260509115315 | 54 | 272 | 1.0 | 5.0 | 0.00 | 0.38 | 0.23 | 91 | 1006.0 |
| 20260509114815 | 54 | 211 | 0.0 | 2.0 | 0.00 | 0.38 | 0.23 | 91 | 1006.1 |
| 20260509113814 | 54 | 199 | 1.0 | 2.0 | 0.00 | 0.38 | 0.23 | 91 | 1006.1 |
| 20260509113314 | 54 | 14 | 0.0 | 4.0 | 0.00 | 0.38 | 0.23 | 91 | 1006.1 |
| 20260509112814 | 54 | 237 | 2.0 | 4.0 | 0.00 | 0.38 | 0.23 | 91 | 1006.1 |
| 20260509111814 | 54 | 300 | 1.0 | 10.0 | 0.01 | 0.38 | 0.23 | 91 | 1005.9 |
| 20260509111314 | 54 | 338 | 3.0 | 10.0 | 0.01 | 0.38 | 0.23 | 90 | 1005.8 |
| 20260509110813 | 54 | 252 | 8.0 | 8.0 | 0.01 | 0.38 | 0.23 | 90 | 1005.7 |
| 20260509105313 | 54 | 147 | 2.0 | 7.0 | 0.01 | 0.38 | 0.23 | 91 | 1005.6 |
| 20260509104813 | 54 | 215 | 0.0 | 10.0 | 0.01 | 0.38 | 0.23 | 91 | 1005.7 |
| 20260509104313 | 54 | 262 | 3.0 | 10.0 | 0.01 | 0.38 | 0.23 | 91 | 1005.5 |
| 20260509103313 | 54 | 216 | 8.0 | 15.0 | 0.01 | 0.38 | 0.23 | 91 | 1005.1 |
| 20260509102812 | 54 | 173 | 6.0 | 11.0 | 0.01 | 0.38 | 0.23 | 91 | 1005.2 |
| 20260509101812 | 54 | 200 | 10.0 | 13.0 | 0.00 | 0.37 | 0.22 | 91 | 1005.6 |
| 20260509100812 | 54 | 186 | 11.0 | 11.0 | 0.00 | 0.37 | 0.22 | 91 | 1005.5 |
| 20260509100312 | 54 | 197 | 5.0 | 11.0 | 0.00 | 0.37 | 0.22 | 91 | 1005.8 |
| 20260509095811 | 54 | 190 | 3.0 | 10.0 | 0.00 | 0.37 | 0.22 | 92 | 1005.9 |
| 20260509094811 | 54 | 214 | 5.0 | 10.0 | 0.00 | 0.37 | 0.22 | 92 | 1005.9 |
| 20260509093811 | 54 | 205 | 4.0 | 7.0 | 0.00 | 0.37 | 0.22 | 91 | 1005.8 |
| 20260509093311 | 54 | 202 | 4.0 | 7.0 | 0.00 | 0.37 | 0.22 | 91 | 1005.8 |
| 20260509092810 | 54 | 206 | 5.0 | 7.0 | 0.00 | 0.37 | 0.22 | 91 | 1005.9 |
| 20260509092310 | 54 | 222 | 1.0 | 7.0 | 0.00 | 0.37 | 0.22 | 91 | 1005.9 |
| 20260509091810 | 54 | 166 | 4.0 | 6.0 | 0.00 | 0.37 | 0.22 | 91 | 1005.9 |
| 20260509090810 | 54 | 225 | 0.0 | 7.0 | 0.01 | 0.37 | 0.22 | 91 | 1006.1 |
| 20260509090310 | 54 | 212 | 3.0 | 7.0 | 0.01 | 0.37 | 0.22 | 91 | 1006.2 |
| 20260509085309 | 54 | 194 | 2.0 | 9.0 | 0.02 | 0.37 | 0.22 | 90 | 1006.4 |
| 20260509084809 | 54 | 209 | 5.0 | 10.0 | 0.02 | 0.37 | 0.22 | 91 | 1006.2 |
| 20260509083809 | 55 | 277 | 2.0 | 11.0 | 0.03 | 0.37 | 0.22 | 91 | 1006.2 |
| 20260509083309 | 55 | 190 | 4.0 | 10.0 | 0.03 | 0.37 | 0.22 | 91 | 1006.3 |
| 20260509082809 | 55 | 162 | 4.0 | 10.0 | 0.03 | 0.37 | 0.22 | 91 | 1006.3 |
| 20260509082308 | 55 | 209 | 2.0 | 11.0 | 0.03 | 0.37 | 0.22 | 91 | 1006.3 |
| 20260509081808 | 55 | 340 | 4.0 | 11.0 | 0.03 | 0.37 | 0.22 | 92 | 1006.4 |
| 20260509081308 | 55 | 205 | 3.0 | 10.0 | 0.03 | 0.37 | 0.22 | 92 | 1006.3 |
| 20260509080808 | 55 | 205 | 2.0 | 8.0 | 0.02 | 0.36 | 0.21 | 92 | 1006.5 |
| 20260509080308 | 55 | 238 | 2.0 | 12.0 | 0.02 | 0.36 | 0.21 | 92 | 1006.4 |
| 20260509075808 | 55 | 244 | 5.0 | 12.0 | 0.02 | 0.36 | 0.21 | 92 | 1006.4 |
| 20260509075308 | 55 | 180 | 2.0 | 10.0 | 0.01 | 0.35 | 0.20 | 91 | 1006.5 |
| 20260509074808 | 55 | 213 | 7.0 | 11.0 | 0.01 | 0.35 | 0.20 | 91 | 1006.6 |
| 20260509074307 | 55 | 209 | 2.0 | 11.0 | 0.01 | 0.35 | 0.20 | 91 | 1006.6 |
| 20260509073807 | 55 | 190 | 2.0 | 9.0 | 0.00 | 0.34 | 0.19 | 91 | 1006.5 |
| 20260509073307 | 55 | 202 | 4.0 | 11.0 | 0.00 | 0.34 | 0.19 | 91 | 1006.5 |
| 20260509072307 | 55 | 252 | 4.0 | 8.0 | 0.00 | 0.34 | 0.19 | 91 | 1006.6 |
| 20260509071807 | 55 | 234 | 3.0 | 10.0 | 0.00 | 0.34 | 0.19 | 91 | 1006.7 |
| 20260509071306 | 55 | 249 | 4.0 | 10.0 | 0.00 | 0.34 | 0.19 | 91 | 1006.8 |
| 20260509070306 | 55 | 180 | 3.0 | 12.0 | 0.01 | 0.34 | 0.19 | 91 | 1007.0 |
| 20260509065306 | 55 | 225 | 11.0 | 17.0 | 0.01 | 0.34 | 0.19 | 91 | 1007.2 |
| 20260509064806 | 55 | 264 | 7.0 | 11.0 | 0.02 | 0.34 | 0.19 | 91 | 1007.3 |
| 20260509064305 | 55 | 206 | 9.0 | 10.0 | 0.03 | 0.34 | 0.19 | 91 | 1007.4 |
| 20260509063805 | 55 | 196 | 5.0 | 9.0 | 0.04 | 0.34 | 0.19 | 91 | 1007.4 |
| 20260509062805 | 55 | 242 | 4.0 | 6.0 | 0.05 | 0.34 | 0.19 | 92 | 1007.4 |
| 20260509062306 | 55 | 205 | 1.0 | 5.0 | 0.06 | 0.34 | 0.19 | 91 | 1007.3 |
| 20260509061305 | 55 | 257 | 4.0 | 9.0 | 0.09 | 0.34 | 0.19 | 91 | 1007.3 |
| 20260509060804 | 55 | 199 | 2.0 | 9.0 | 0.09 | 0.34 | 0.19 | 91 | 1007.4 |
| 20260509060304 | 55 | 219 | 2.0 | 9.0 | 0.09 | 0.33 | 0.18 | 91 | 1007.4 |
| 20260509055804 | 55 | 250 | 6.0 | 9.0 | 0.09 | 0.33 | 0.18 | 91 | 1007.5 |
| 20260509055306 | 55 | 289 | 3.0 | 10.0 | 0.10 | 0.33 | 0.18 | 91 | 1007.5 |
| 20260509054803 | 55 | 203 | 2.0 | 11.0 | 0.09 | 0.32 | 0.17 | 91 | 1007.4 |
| 20260509054304 | 55 | 213 | 10.0 | 11.0 | 0.09 | 0.31 | 0.16 | 91 | 1007.5 |
| 20260509053804 | 55 | 180 | 4.0 | 9.0 | 0.09 | 0.30 | 0.15 | 91 | 1007.5 |
| 20260509053304 | 55 | 263 | 5.0 | 11.0 | 0.09 | 0.30 | 0.15 | 91 | 1007.5 |
| 20260509052803 | 55 | 215 | 1.0 | 13.0 | 0.10 | 0.29 | 0.14 | 91 | 1007.7 |
| 20260509052306 | 55 | 214 | 5.0 | 13.0 | 0.10 | 0.28 | 0.13 | 91 | 1007.8 |
| 20260509050802 | 55 | 229 | 3.0 | 12.0 | 0.09 | 0.25 | 0.10 | 91 | 1007.9 |
| 20260509050332 | 55 | 199 | 8.0 | 11.0 | 0.09 | 0.24 | 0.09 | 91 | 1008.1 |
| 20260509045832 | 55 | 203 | 4.0 | 12.0 | 0.09 | 0.24 | 0.09 | 91 | 1008.2 |
| 20260509044832 | 55 | 192 | 3.0 | 11.0 | 0.10 | 0.23 | 0.08 | 91 | 1008.3 |
| 20260509044301 | 55 | 242 | 10.0 | 11.0 | 0.09 | 0.22 | 0.07 | 91 | 1008.3 |
| 20260509043831 | 55 | 199 | 5.0 | 11.0 | 0.08 | 0.21 | 0.06 | 90 | 1008.3 |
| 20260509043331 | 55 | 210 | 7.0 | 11.0 | 0.08 | 0.21 | 0.06 | 90 | 1008.2 |
| 20260509042331 | 55 | 298 | 5.0 | 14.0 | 0.05 | 0.18 | 0.03 | 90 | 1008.3 |
| 20260509041801 | 56 | 286 | 5.0 | 13.0 | 0.04 | 0.17 | 0.02 | 89 | 1008.3 |
| 20260509041301 | 55 | 169 | 4.0 | 13.0 | 0.03 | 0.16 | 0.01 | 89 | 1008.4 |
| 20260509040801 | 55 | 217 | 5.0 | 14.0 | 0.04 | 0.16 | 0.01 | 89 | 1008.4 |
| 20260509040330 | 55 | 217 | 6.0 | 14.0 | 0.04 | 0.15 | 0.00 | 90 | 1008.3 |
| 20260509035830 | 55 | 202 | 6.0 | 14.0 | 0.05 | 0.15 | 0.15 | 90 | 1008.1 |
| 20260509035330 | 55 | 198 | 6.0 | 14.0 | 0.06 | 0.14 | 0.14 | 90 | 1008.1 |
| 20260509034830 | 55 | 200 | 5.0 | 13.0 | 0.05 | 0.13 | 0.13 | 90 | 1008.1 |
| 20260509034330 | 55 | 232 | 3.0 | 12.0 | 0.06 | 0.13 | 0.13 | 91 | 1008.3 |
| 20260509033830 | 55 | 173 | 7.0 | 12.0 | 0.07 | 0.13 | 0.13 | 90 | 1008.3 |
| 20260509033329 | 55 | 214 | 3.0 | 15.0 | 0.07 | 0.13 | 0.13 | 90 | 1008.4 |
| 20260509032829 | 55 | 169 | 4.0 | 15.0 | 0.07 | 0.13 | 0.13 | 90 | 1008.5 |
| 20260509032329 | 55 | 273 | 7.0 | 8.0 | 0.08 | 0.13 | 0.13 | 91 | 1008.4 |
| 20260509031829 | 55 | 157 | 2.0 | 7.0 | 0.08 | 0.13 | 0.13 | 91 | 1008.5 |
| 20260509031329 | 55 | 246 | 5.0 | 12.0 | 0.08 | 0.13 | 0.13 | 91 | 1008.6 |
| 20260509030829 | 55 | 261 | 5.0 | 12.0 | 0.08 | 0.12 | 0.12 | 91 | 1008.7 |
| 20260509025828 | 55 | 218 | 2.0 | 11.0 | 0.06 | 0.10 | 0.10 | 91 | 1008.8 |
| 20260509025328 | 55 | 220 | 4.0 | 11.0 | 0.04 | 0.08 | 0.08 | 91 | 1009.0 |
| 20260509023829 | 55 | 225 | 0.0 | 5.0 | 0.02 | 0.06 | 0.06 | 90 | 1009.2 |
| 20260509023328 | 55 | 183 | 2.0 | 5.0 | 0.02 | 0.06 | 0.06 | 90 | 1009.2 |
| 20260509022827 | 55 | 259 | 1.0 | 5.0 | 0.02 | 0.06 | 0.06 | 90 | 1009.1 |
| 20260509022327 | 55 | 197 | 1.0 | 5.0 | 0.01 | 0.05 | 0.05 | 90 | 1009.0 |
| 20260509021827 | 55 | 283 | 2.0 | 4.0 | 0.01 | 0.05 | 0.05 | 89 | 1008.9 |
| 20260509021327 | 55 | 207 | 1.0 | 6.0 | 0.02 | 0.05 | 0.05 | 89 | 1008.8 |
| 20260509020827 | 55 | 191 | 1.0 | 6.0 | 0.01 | 0.04 | 0.04 | 89 | 1008.8 |
| 20260509020327 | 55 | 205 | 6.0 | 6.0 | 0.01 | 0.04 | 0.04 | 89 | 1008.9 |
| 20260509015327 | 55 | 205 | 3.0 | 4.0 | 0.01 | 0.04 | 0.04 | 89 | 1008.6 |
| 20260509014826 | 55 | 196 | 1.0 | 3.0 | 0.01 | 0.04 | 0.04 | 89 | 1008.6 |
| 20260509014326 | 55 | 207 | 0.0 | 0.0 | 0.01 | 0.04 | 0.04 | 89 | 1008.6 |
| 20260509013826 | 55 | 207 | 0.0 | 4.0 | 0.01 | 0.04 | 0.04 | 89 | 1008.6 |
| 20260509013326 | 55 | 207 | 0.0 | 6.0 | 0.02 | 0.04 | 0.04 | 88 | 1008.6 |
| 20260509012826 | 55 | 211 | 0.0 | 6.0 | 0.02 | 0.04 | 0.04 | 88 | 1008.5 |
| 20260509012326 | 55 | 223 | 0.0 | 4.0 | 0.02 | 0.04 | 0.04 | 89 | 1008.4 |
| 20260509011826 | 55 | 207 | 0.0 | 4.0 | 0.02 | 0.04 | 0.04 | 89 | 1008.3 |
| 20260509011326 | 55 | 248 | 1.0 | 4.0 | 0.01 | 0.03 | 0.03 | 89 | 1008.3 |
| 20260509010826 | 55 | 202 | 0.0 | 4.0 | 0.01 | 0.03 | 0.03 | 89 | 1008.3 |
| 20260509010325 | 55 | 215 | 0.0 | 4.0 | 0.02 | 0.03 | 0.03 | 90 | 1008.3 |
| 20260509005825 | 54 | 209 | 0.0 | 4.0 | 0.02 | 0.03 | 0.03 | 91 | 1008.1 |
| 20260509005325 | 54 | 186 | 0.0 | 0.0 | 0.02 | 0.03 | 0.03 | 92 | 1008.2 |
| 20260509004824 | 54 | 186 | 0.0 | 0.0 | 0.02 | 0.03 | 0.03 | 92 | 1008.2 |
| 20260509004324 | 54 | 186 | 0.0 | 0.0 | 0.03 | 0.03 | 0.03 | 91 | 1008.0 |
| 20260509003825 | 54 | 186 | 0.0 | 0.0 | 0.03 | 0.03 | 0.03 | 91 | 1007.9 |
| 20260509002324 | 54 | 169 | 0.0 | 0.0 | 0.02 | 0.02 | 0.02 | 91 | 1008.1 |
| 20260509001824 | 54 | 169 | 0.0 | 0.0 | 0.02 | 0.02 | 0.02 | 90 | 1008.1 |
| 20260509000325 | 55 | 295 | 0.0 | 2.0 | 0.01 | 0.01 | 0.01 | 87 | 1008.4 |
| 20260508235823 | 55 | 306 | 0.0 | 3.0 | 0.01 | 0.01 | 0.01 | 86 | 1008.4 |
| 20260508235322 | 56 | 308 | 0.0 | 6.0 | 0.01 | 0.01 | 0.01 | 85 | 1008.4 |
| 20260508234822 | 56 | 350 | 1.0 | 6.0 | 0.01 | 0.01 | 0.01 | 84 | 1008.4 |
| 20260508234322 | 56 | 5 | 2.0 | 6.0 | 0.00 | 0.00 | 0.00 | 82 | 1008.5 |
| 20260508233822 | 57 | 332 | 1.0 | 7.0 | 0.00 | 0.00 | 0.00 | 80 | 1008.7 |
| 20260508233322 | 57 | 306 | 4.0 | 7.0 | 0.00 | 0.00 | 0.00 | 78 | 1008.5 |
| 20260508232822 | 58 | 323 | 2.0 | 6.0 | 0.00 | 0.00 | 0.00 | 79 | 1008.6 |
| 20260508231822 | 58 | 309 | 1.0 | 3.0 | 0.00 | 0.00 | 0.00 | 76 | 1008.2 |
| 20260508231322 | 59 | 310 | 2.0 | 4.0 | 0.00 | 0.00 | 0.00 | 74 | 1008.0 |
| 20260508230822 | 59 | 242 | 2.0 | 4.0 | 0.00 | 0.00 | 0.00 | 74 | 1007.9 |
| 20260508230321 | 59 | 317 | 0.0 | 2.0 | 0.00 | 0.00 | 0.00 | 76 | 1007.7 |
| 20260508225822 | 59 | 5 | 1.0 | 3.0 | 0.00 | 0.00 | 0.00 | 77 | 1007.7 |
| 20260508225322 | 59 | 5 | 1.0 | 3.0 | 0.00 | 0.00 | 0.00 | 75 | 1007.5 |
| 20260508224821 | 58 | 5 | 0.0 | 1.0 | 0.00 | 0.00 | 0.00 | 80 | 1007.6 |
| 20260508224321 | 59 | 136 | 0.0 | 1.0 | 0.00 | 0.00 | 0.00 | 79 | 1007.6 |
| 20260508223821 | 59 | 29 | 0.0 | 0.0 | 0.00 | 0.00 | 0.00 | 80 | 1007.5 |
| 20260508223320 | 59 | 186 | 0.0 | 0.0 | 0.00 | 0.00 | 0.00 | 77 | 1007.5 |
| 20260508222821 | 59 | 186 | 0.0 | 0.0 | 0.00 | 0.00 | 0.00 | 78 | 1007.5 |
| 20260508222320 | 59 | 210 | 0.0 | 0.0 | 0.00 | 0.00 | 0.00 | 77 | 1007.4 |
| 20260508221820 | 60 | 294 | 0.0 | 0.0 | 0.00 | 0.00 | 0.00 | 78 | 1007.7 |
| 20260508221319 | 60 | 285 | 0.0 | 0.0 | 0.00 | 0.00 | 0.00 | 77 | 1007.7 |
| 20260508220320 | 61 | 5 | 0.0 | 2.0 | 0.00 | 0.00 | 0.00 | 67 | 1007.6 |
| 20260508215819 | 61 | 210 | 1.0 | 2.0 | 0.00 | 0.00 | 0.00 | 67 | 1007.7 |
| 20260508215319 | 61 | 210 | 0.0 | 1.0 | 0.00 | 0.00 | 0.00 | 66 | 1007.7 |
| 20260508214819 | 62 | 210 | 0.0 | 1.0 | 0.00 | 0.00 | 0.00 | 67 | 1007.7 |
| 20260508214319 | 62 | 139 | 0.0 | 2.0 | 0.00 | 0.00 | 0.00 | 60 | 1007.7 |
| 20260508212818 | 64 | 154 | 2.0 | 6.0 | 0.00 | 0.00 | 0.00 | 59 | 1007.9 |
| 20260508212318 | 64 | 228 | 1.0 | 6.0 | 0.00 | 0.00 | 0.00 | 57 | 1007.8 |
| 20260508211818 | 64 | 204 | 3.0 | 6.0 | 0.00 | 0.00 | 0.00 | 56 | 1008.1 |
| 20260508210818 | 63 | 198 | 6.0 | 7.0 | 0.00 | 0.00 | 0.00 | 55 | 1008.1 |
| 20260508210318 | 64 | 213 | 0.0 | 7.0 | 0.00 | 0.00 | 0.00 | 56 | 1008.2 |
| 20260508205318 | 64 | 213 | 2.0 | 11.0 | 0.00 | 0.00 | 0.00 | 54 | 1008.2 |
| 20260508204817 | 64 | 224 | 1.0 | 11.0 | 0.00 | 0.00 | 0.00 | 55 | 1008.2 |
| 20260508203817 | 64 | 215 | 5.0 | 12.0 | 0.00 | 0.00 | 0.00 | 55 | 1008.4 |
| 20260508203316 | 64 | 175 | 3.0 | 12.0 | 0.00 | 0.00 | 0.00 | 54 | 1008.4 |
| 20260508202817 | 64 | 268 | 3.0 | 10.0 | 0.00 | 0.00 | 0.00 | 54 | 1008.3 |
| 20260508202316 | 64 | 188 | 3.0 | 11.0 | 0.00 | 0.00 | 0.00 | 54 | 1008.3 |
| 20260508201816 | 64 | 248 | 5.0 | 12.0 | 0.00 | 0.00 | 0.00 | 55 | 1008.3 |
| 20260508201316 | 64 | 179 | 9.0 | 14.0 | 0.00 | 0.00 | 0.00 | 55 | 1008.5 |
| 20260508200816 | 64 | 183 | 4.0 | 16.0 | 0.00 | 0.00 | 0.00 | 52 | 1008.5 |
| 20260508200316 | 64 | 176 | 10.0 | 16.0 | 0.00 | 0.00 | 0.00 | 52 | 1008.5 |
| 20260508195816 | 64 | 247 | 14.0 | 14.0 | 0.00 | 0.00 | 0.00 | 52 | 1008.6 |
| 20260508195315 | 64 | 198 | 4.0 | 17.0 | 0.00 | 0.00 | 0.00 | 52 | 1008.6 |
| 20260508194315 | 65 | 191 | 8.0 | 16.0 | 0.00 | 0.00 | 0.00 | 53 | 1008.9 |
| 20260508193815 | 65 | 304 | 6.0 | 14.0 | 0.00 | 0.00 | 0.00 | 52 | 1008.9 |
| 20260508193315 | 65 | 211 | 10.0 | 14.0 | 0.00 | 0.00 | 0.00 | 51 | 1008.9 |
| 20260508192815 | 65 | 220 | 9.0 | 15.0 | 0.00 | 0.00 | 0.00 | 51 | 1009.0 |
| 20260508192314 | 65 | 196 | 6.0 | 15.0 | 0.00 | 0.00 | 0.00 | 54 | 1008.9 |
| 20260508191814 | 65 | 220 | 3.0 | 11.0 | 0.00 | 0.00 | 0.00 | 53 | 1009.0 |
| 20260508191314 | 65 | 194 | 2.0 | 12.0 | 0.00 | 0.00 | 0.00 | 52 | 1009.0 |
| 20260508190814 | 65 | 217 | 2.0 | 16.0 | 0.00 | 0.00 | 0.00 | 51 | 1009.0 |
| 20260508190314 | 65 | 317 | 7.0 | 18.0 | 0.00 | 0.00 | 0.00 | 50 | 1009.0 |
| 20260508185814 | 65 | 237 | 6.0 | 18.0 | 0.00 | 0.00 | 0.00 | 50 | 1009.0 |
| 20260508184813 | 65 | 175 | 10.0 | 19.0 | 0.00 | 0.00 | 0.00 | 50 | 1009.3 |
| 20260508183313 | 64 | 256 | 3.0 | 14.0 | 0.00 | 0.00 | 0.00 | 52 | 1009.3 |
| 20260508182813 | 64 | 206 | 6.0 | 14.0 | 0.00 | 0.00 | 0.00 | 53 | 1009.4 |
| 20260508182313 | 64 | 213 | 4.0 | 15.0 | 0.00 | 0.00 | 0.00 | 52 | 1009.4 |
| 20260508181812 | 64 | 232 | 5.0 | 16.0 | 0.00 | 0.00 | 0.00 | 53 | 1009.5 |
| 20260508181312 | 64 | 249 | 5.0 | 19.0 | 0.00 | 0.00 | 0.00 | 53 | 1009.6 |
| 20260508180812 | 64 | 190 | 7.0 | 19.0 | 0.00 | 0.00 | 0.00 | 52 | 1009.6 |
| 20260508180312 | 65 | 213 | 6.0 | 19.0 | 0.00 | 0.00 | 0.00 | 51 | 1009.7 |
| 20260508175812 | 64 | 261 | 7.0 | 19.0 | 0.00 | 0.00 | 0.00 | 52 | 1009.8 |
| 20260508175312 | 64 | 273 | 6.0 | 15.0 | 0.00 | 0.00 | 0.00 | 53 | 1009.9 |
| 20260508174812 | 64 | 333 | 5.0 | 18.0 | 0.00 | 0.00 | 0.00 | 53 | 1010.0 |
| 20260508174311 | 64 | 192 | 14.0 | 18.0 | 0.00 | 0.00 | 0.00 | 55 | 1010.2 |
| 20260508173812 | 64 | 200 | 11.0 | 14.0 | 0.00 | 0.00 | 0.00 | 54 | 1010.4 |
| 20260508173311 | 64 | 213 | 11.0 | 20.0 | 0.00 | 0.00 | 0.00 | 53 | 1010.4 |
| 20260508172311 | 65 | 201 | 9.0 | 19.0 | 0.00 | 0.00 | 0.00 | 53 | 1010.5 |
| 20260508171811 | 66 | 181 | 10.0 | 19.0 | 0.00 | 0.00 | 0.00 | 50 | 1010.6 |
| 20260508170810 | 67 | 236 | 3.0 | 13.0 | 0.00 | 0.00 | 0.00 | 52 | 1010.6 |
| 20260508165810 | 67 | 192 | 1.0 | 14.0 | 0.00 | 0.00 | 0.00 | 52 | 1010.8 |
| 20260508165310 | 66 | 178 | 11.0 | 11.0 | 0.00 | 0.00 | 0.00 | 55 | 1010.9 |
| 20260508164810 | 65 | 261 | 3.0 | 10.0 | 0.00 | 0.00 | 0.00 | 53 | 1011.0 |
| 20260508163809 | 65 | 201 | 1.0 | 13.0 | 0.00 | 0.00 | 0.00 | 53 | 1011.3 |
| 20260508163309 | 65 | 242 | 3.0 | 13.0 | 0.00 | 0.00 | 0.00 | 53 | 1011.4 |
| 20260508162309 | 64 | 197 | 4.0 | 14.0 | 0.00 | 0.00 | 0.00 | 54 | 1011.5 |
| 20260508161809 | 64 | 171 | 1.0 | 14.0 | 0.00 | 0.00 | 0.00 | 59 | 1011.7 |
| 20260508161308 | 63 | 217 | 5.0 | 14.0 | 0.00 | 0.00 | 0.00 | 52 | 1011.5 |
| 20260508160808 | 64 | 227 | 4.0 | 13.0 | 0.00 | 0.00 | 0.00 | 57 | 1011.6 |
| 20260508155808 | 63 | 166 | 2.0 | 15.0 | 0.00 | 0.00 | 0.00 | 57 | 1011.4 |
| 20260508155308 | 63 | 186 | 5.0 | 14.0 | 0.00 | 0.00 | 0.00 | 54 | 1011.4 |
| 20260508154808 | 62 | 238 | 1.0 | 14.0 | 0.00 | 0.00 | 0.00 | 54 | 1011.4 |
| 20260508154308 | 62 | 205 | 6.0 | 13.0 | 0.00 | 0.00 | 0.00 | 54 | 1011.4 |
| 20260508153807 | 64 | 218 | 2.0 | 13.0 | 0.00 | 0.00 | 0.00 | 54 | 1011.4 |
| 20260508153307 | 63 | 333 | 7.0 | 13.0 | 0.00 | 0.00 | 0.00 | 55 | 1011.5 |
| 20260508152808 | 62 | 203 | 7.0 | 12.0 | 0.00 | 0.00 | 0.00 | 56 | 1011.6 |
| 20260508151807 | 62 | 217 | 3.0 | 12.0 | 0.00 | 0.00 | 0.00 | 56 | 1011.7 |
| 20260508151307 | 61 | 232 | 9.0 | 13.0 | 0.00 | 0.00 | 0.00 | 57 | 1011.8 |
| 20260508150807 | 60 | 171 | 9.0 | 13.0 | 0.00 | 0.00 | 0.00 | 59 | 1011.9 |
| 20260508150307 | 60 | 260 | 3.0 | 12.0 | 0.00 | 0.00 | 0.00 | 60 | 1012.0 |
| 20260508145307 | 60 | 263 | 10.0 | 11.0 | 0.00 | 0.00 | 0.00 | 58 | 1012.0 |
| 20260508144806 | 61 | 215 | 7.0 | 8.0 | 0.00 | 0.00 | 0.00 | 56 | 1012.0 |
| 20260508144306 | 61 | 281 | 1.0 | 12.0 | 0.00 | 0.00 | 0.00 | 60 | 1012.1 |
| 20260508143806 | 61 | 151 | 4.0 | 12.0 | 0.00 | 0.00 | 0.00 | 59 | 1012.2 |
| 20260508143305 | 60 | 192 | 2.0 | 11.0 | 0.00 | 0.00 | 0.00 | 60 | 1012.1 |
| 20260508142806 | 58 | 253 | 0.0 | 11.0 | 0.00 | 0.00 | 0.00 | 65 | 1012.2 |
| 20260508142307 | 58 | 296 | 6.0 | 6.0 | 0.00 | 0.00 | 0.00 | 62 | 1012.2 |